Yang Li Hu — BOGE — position and weather

sailwx.info

Track history (hours):
 
Tides and Currents Weather Stations Pressure Air Temp Water Temp Dewpoint Dewpoint Depression Visibility Wind Speed Wind Dir Waves Ship Positions

Yang Li Hu

Last reported at 2014-Aug-29 22:29 UTC. Time now 2014-Sep-01 13:46 UTC.
Position N 50°30' W 000°04'.

Length 244 m; draft 13.8 m.

Type: Tanker. MMSI: 413975000.

Date/timePositionNaut miles runAvg speedWind from/ knotsBaromVisibWave heightAir tempDewpointWater temp
2014-Aug-29 22:29N 50°30' W 000°04'9 9.2
2014-Aug-29 21:29N 50°33' E 000°10'1010.1
2014-Aug-29 20:33N 50°35' E 000°24'1111.4
2014-Aug-29 19:33N 50°39' E 000°41'1212.1
2014-Aug-29 18:33N 50°46' E 000°57'2211.1
2014-Aug-29 16:33N 50°60' E 001°25'9 9.0
2014-Aug-29 15:33N 51°06' E 001°35'8 8.3
2014-Aug-29 14:33N 51°12' E 001°44'9 8.9
2014-Aug-29 13:34N 51°20' E 001°51'1110.5
2014-Aug-29 12:33N 51°29' E 001°60'1212.4
2014-Aug-29 11:33N 51°38' E 002°13'39711.9
2014-Aug-28 02:10N 57°17' E 008°07'2011.5
2014-Aug-28 00:28N 57°29' E 008°36'1511.4
2014-Aug-27 23:11N 57°38' E 008°58'911.4
2014-Aug-27 22:26N 57°43' E 009°11'1011.3
2014-Aug-27 21:31N 57°48' E 009°28'1111.5
2014-Aug-27 20:33N 57°49' E 009°49'1212.0
2014-Aug-27 19:33N 57°49' E 010°11'1312.8
2014-Aug-27 18:33N 57°48' E 010°35'10 9.7
2014-Aug-27 17:33N 57°45' E 010°53'1110.7
2014-Aug-27 16:33N 57°38' E 011°07'1211.9
2014-Aug-27 15:33N 57°29' E 011°23'1111.4
2014-Aug-27 14:33N 57°19' E 011°32'1211.8
2014-Aug-27 13:32N 57°08' E 011°39'1211.8
2014-Aug-27 12:33N 56°57' E 011°46'1211.5
2014-Aug-27 11:33N 56°46' E 011°52'1212.0
2014-Aug-27 10:33N 56°35' E 011°43'1312.3
2014-Aug-27 09:32N 56°24' E 011°31'1211.9
2014-Aug-27 08:33N 56°14' E 011°20'4810.6
2014-Aug-27 04:04N 55°29' E 010°55'1910.1
2014-Aug-27 02:10N 55°10' E 011°00'49 8.6
2014-Aug-26 20:33N 54°27' E 011°42'1211.9
2014-Aug-26 19:32N 54°26' E 012°03'10 9.8
2014-Aug-26 18:33N 54°33' E 012°15'1111.3
2014-Aug-26 17:33N 54°41' E 012°28'1111.1
2014-Aug-26 16:33N 54°47' E 012°45'1412.5
2014-Aug-26 15:26N 54°52' E 013°07'4611.8
2014-Aug-26 11:32N 55°09' E 014°22'1212.0
2014-Aug-26 10:33N 55°17' E 014°38'9 8.9
2014-Aug-26 09:33N 55°19' E 014°53'1211.7
2014-Aug-26 08:33N 55°25' E 015°10'1311.8
2014-Aug-26 07:29N 55°33' E 015°28'34311.4
2014-Aug-25 01:26N 59°35' E 023°02'1112.0
2014-Aug-25 00:33N 59°38' E 023°22'1212.2
2014-Aug-24 23:33N 59°41' E 023°45'1211.9
2014-Aug-24 22:33N 59°45' E 024°08'7211.7
2014-Aug-24 16:26N 60°01' E 026°27'1011.6
2014-Aug-24 15:33N 60°01' E 026°47'  
2014-Aug-20 16:33N 59°59' E 026°41'9813.9
2014-Aug-20 09:32N 59°35' E 023°33'  
Track history (hours):
 
Tides and Currents Weather Stations Pressure Air Temp Water Temp Dewpoint Dewpoint Depression Visibility Wind Speed Wind Dir Waves Ship Positions

Yang Li Hu

Last reported at 2014-Aug-29 22:29 UTC. Time now 2014-Sep-01 13:46 UTC.
Position N 50°30' W 000°04'.

Length 244 m; draft 13.8 m.

Type: Tanker. MMSI: 413975000.

Date/timePositionNaut miles runAvg speedWind from/ knotsBaromVisibWave heightAir tempDewpointWater temp
2014-Aug-29 22:29N 50°30' W 000°04'9 9.2
2014-Aug-29 21:29N 50°33' E 000°10'1010.1
2014-Aug-29 20:33N 50°35' E 000°24'1111.4
2014-Aug-29 19:33N 50°39' E 000°41'1212.1
2014-Aug-29 18:33N 50°46' E 000°57'2211.1
2014-Aug-29 16:33N 50°60' E 001°25'9 9.0
2014-Aug-29 15:33N 51°06' E 001°35'8 8.3
2014-Aug-29 14:33N 51°12' E 001°44'9 8.9
2014-Aug-29 13:34N 51°20' E 001°51'1110.5
2014-Aug-29 12:33N 51°29' E 001°60'1212.4
2014-Aug-29 11:33N 51°38' E 002°13'39711.9
2014-Aug-28 02:10N 57°17' E 008°07'2011.5
2014-Aug-28 00:28N 57°29' E 008°36'1511.4
2014-Aug-27 23:11N 57°38' E 008°58'911.4
2014-Aug-27 22:26N 57°43' E 009°11'1011.3
2014-Aug-27 21:31N 57°48' E 009°28'1111.5
2014-Aug-27 20:33N 57°49' E 009°49'1212.0
2014-Aug-27 19:33N 57°49' E 010°11'1312.8
2014-Aug-27 18:33N 57°48' E 010°35'10 9.7
2014-Aug-27 17:33N 57°45' E 010°53'1110.7
2014-Aug-27 16:33N 57°38' E 011°07'1211.9
2014-Aug-27 15:33N 57°29' E 011°23'1111.4
2014-Aug-27 14:33N 57°19' E 011°32'1211.8
2014-Aug-27 13:32N 57°08' E 011°39'1211.8
2014-Aug-27 12:33N 56°57' E 011°46'1211.5
2014-Aug-27 11:33N 56°46' E 011°52'1212.0
2014-Aug-27 10:33N 56°35' E 011°43'1312.3
2014-Aug-27 09:32N 56°24' E 011°31'1211.9
2014-Aug-27 08:33N 56°14' E 011°20'4810.6
2014-Aug-27 04:04N 55°29' E 010°55'1910.1
2014-Aug-27 02:10N 55°10' E 011°00'49 8.6
2014-Aug-26 20:33N 54°27' E 011°42'1211.9
2014-Aug-26 19:32N 54°26' E 012°03'10 9.8
2014-Aug-26 18:33N 54°33' E 012°15'1111.3
2014-Aug-26 17:33N 54°41' E 012°28'1111.1
2014-Aug-26 16:33N 54°47' E 012°45'1412.5
2014-Aug-26 15:26N 54°52' E 013°07'4611.8
2014-Aug-26 11:32N 55°09' E 014°22'1212.0
2014-Aug-26 10:33N 55°17' E 014°38'9 8.9
2014-Aug-26 09:33N 55°19' E 014°53'1211.7
2014-Aug-26 08:33N 55°25' E 015°10'1311.8
2014-Aug-26 07:29N 55°33' E 015°28'34311.4
2014-Aug-25 01:26N 59°35' E 023°02'1112.0
2014-Aug-25 00:33N 59°38' E 023°22'1212.2
2014-Aug-24 23:33N 59°41' E 023°45'1211.9
2014-Aug-24 22:33N 59°45' E 024°08'7211.7
2014-Aug-24 16:26N 60°01' E 026°27'1011.6
2014-Aug-24 15:33N 60°01' E 026°47'  
2014-Aug-20 16:33N 59°59' E 026°41'9813.9
2014-Aug-20 09:32N 59°35' E 023°33'  

Dump ship's entire track history